Time,TemperatureF,DewpointF,PressureIn,WindDirection,WindDirectionDegrees,WindSpeedMPH,WindSpeedGustMPH,Humidity,HourlyPrecipIn,Conditions,Clouds,dailyrainin,SoftwareType,DateUTC
2013-04-30 00:01:00,42.0,41.0,30.30,North,0,0.0,5.0,95,0.00,,,0.09,,2013-04-30 07:01:00,
2013-04-30 00:11:00,42.0,41.0,30.30,North,0,0.0,5.0,95,0.00,,,0.09,,2013-04-30 07:11:00,
2013-04-30 00:21:00,42.0,41.0,30.30,North,0,0.0,0.0,95,0.00,,,0.09,,2013-04-30 07:21:00,
2013-04-30 00:31:00,41.0,40.0,30.30,North,0,0.0,0.0,96,0.00,,,0.09,,2013-04-30 07:31:00,
2013-04-30 00:41:00,41.0,40.0,30.30,North,0,0.0,0.0,96,0.00,,,0.09,,2013-04-30 07:41:00,
2013-04-30 00:52:00,42.0,41.0,30.31,North,0,0.0,7.0,96,0.00,,,0.09,,2013-04-30 07:52:00,
2013-04-30 01:02:00,42.0,41.0,30.31,North,0,0.0,7.0,96,0.00,,,0.09,,2013-04-30 08:02:00,
2013-04-30 01:11:00,42.0,41.0,30.31,North,0,0.0,7.0,96,0.00,,,0.09,,2013-04-30 08:11:00,
2013-04-30 01:21:00,41.0,40.0,30.31,North,0,0.0,0.0,96,0.00,,,0.09,,2013-04-30 08:21:00,
2013-04-30 01:31:00,41.0,40.0,30.32,North,0,0.0,0.0,96,0.00,,,0.06,,2013-04-30 08:31:00,
2013-04-30 01:42:00,41.0,40.0,30.32,North,0,0.0,0.0,96,0.00,,,0.06,,2013-04-30 08:42:00,
2013-04-30 01:52:00,42.0,41.0,30.33,North,0,0.0,0.0,96,0.00,,,0.06,,2013-04-30 08:52:00,
2013-04-30 02:01:00,42.0,41.0,30.33,North,0,0.0,4.0,95,0.00,,,0.06,,2013-04-30 09:01:00,
2013-04-30 02:11:00,42.0,41.0,30.33,North,0,0.0,4.0,95,0.00,,,0.06,,2013-04-30 09:11:00,
2013-04-30 02:21:00,42.0,41.0,30.33,North,0,0.0,0.0,96,0.00,,,0.06,,2013-04-30 09:21:00,
2013-04-30 02:32:00,42.0,41.0,30.33,North,0,0.0,0.0,96,0.00,,,0.04,,2013-04-30 09:32:00,
2013-04-30 02:42:00,42.0,41.0,30.33,North,0,0.0,0.0,96,0.00,,,0.04,,2013-04-30 09:42:00,
2013-04-30 02:52:00,41.0,40.0,30.33,North,0,0.0,1.0,96,0.00,,,0.04,,2013-04-30 09:52:00,
2013-04-30 03:02:00,41.0,40.0,30.33,North,0,0.0,3.0,96,0.00,,,0.04,,2013-04-30 10:02:00,
2013-04-30 03:11:00,41.0,40.0,30.33,North,0,0.0,3.0,96,0.00,,,0.04,,2013-04-30 10:11:00,
2013-04-30 03:22:00,41.0,40.0,30.33,North,0,0.0,3.0,96,0.00,,,0.04,,2013-04-30 10:22:00,
2013-04-30 03:32:00,41.0,40.0,30.33,North,0,0.0,0.0,97,0.00,,,0.03,,2013-04-30 10:32:00,
2013-04-30 03:41:00,41.0,40.0,30.33,North,0,0.0,0.0,97,0.00,,,0.03,,2013-04-30 10:41:00,
2013-04-30 03:52:00,41.0,40.0,30.33,North,0,0.0,0.0,97,0.00,,,0.03,,2013-04-30 10:52:00,
2013-04-30 04:01:00,41.0,40.0,30.33,North,0,0.0,5.0,97,0.00,,,0.03,,2013-04-30 11:01:00,
2013-04-30 04:11:00,41.0,40.0,30.33,North,0,0.0,5.0,97,0.00,,,0.03,,2013-04-30 11:11:00,
2013-04-30 04:21:00,41.0,40.0,30.34,North,0,0.0,5.0,97,0.00,,,0.03,,2013-04-30 11:21:00,
2013-04-30 04:31:00,41.0,40.0,30.34,North,0,0.0,5.0,97,0.00,,,0.02,,2013-04-30 11:31:00,
2013-04-30 04:42:00,41.0,40.0,30.34,North,0,0.0,5.0,97,0.00,,,0.02,,2013-04-30 11:42:00,
2013-04-30 04:51:00,41.0,40.0,30.35,North,0,0.0,0.0,96,0.00,,,0.02,,2013-04-30 11:51:00,
2013-04-30 05:01:00,41.0,40.0,30.36,North,0,0.0,7.0,95,0.00,,,0.02,,2013-04-30 12:01:00,
2013-04-30 05:11:00,41.0,40.0,30.36,North,0,0.0,7.0,95,0.00,,,0.02,,2013-04-30 12:11:00,
2013-04-30 05:21:00,41.0,40.0,30.35,North,0,0.0,0.0,96,0.00,,,0.02,,2013-04-30 12:21:00,
2013-04-30 05:31:00,41.0,40.0,30.35,North,0,0.0,0.0,96,0.00,,,0.00,,2013-04-30 12:31:00,
2013-04-30 05:41:00,41.0,40.0,30.35,North,0,0.0,0.0,96,0.00,,,0.00,,2013-04-30 12:41:00,
2013-04-30 05:51:00,41.0,40.0,30.35,North,0,0.0,0.0,97,0.00,,,0.00,,2013-04-30 12:51:00,
2013-04-30 06:01:00,41.0,40.0,30.35,North,0,0.0,0.0,97,0.00,,,0.00,,2013-04-30 13:01:00,
2013-04-30 06:11:00,41.0,40.0,30.35,North,0,0.0,0.0,97,0.00,,,0.00,,2013-04-30 13:11:00,
2013-04-30 06:21:00,41.0,40.0,30.37,North,0,0.0,7.0,97,0.00,,,0.00,,2013-04-30 13:21:00,
2013-04-30 06:31:00,41.0,40.0,30.37,North,0,0.0,0.0,97,0.00,,,0.00,,2013-04-30 13:31:00,
2013-04-30 06:41:00,41.0,40.0,30.37,North,0,0.0,0.0,97,0.00,,,0.00,,2013-04-30 13:41:00,
2013-04-30 06:52:00,41.0,40.0,30.37,North,0,0.0,0.0,97,0.00,,,0.00,,2013-04-30 13:52:00,
2013-04-30 07:01:00,40.0,39.0,30.37,North,0,0.0,0.0,98,0.00,,,0.00,,2013-04-30 14:01:00,
2013-04-30 07:11:00,40.0,40.0,30.38,North,0,0.0,0.0,99,0.00,,,0.00,,2013-04-30 14:11:00,
2013-04-30 07:21:00,40.0,40.0,30.38,North,0,0.0,0.0,99,0.00,,,0.00,,2013-04-30 14:21:00,
2013-04-30 07:31:00,41.0,41.0,30.39,North,0,0.0,0.0,100,0.00,,,0.00,,2013-04-30 14:31:00,
2013-04-30 07:41:00,41.0,41.0,30.39,North,0,0.0,0.0,100,0.00,,,0.00,,2013-04-30 14:41:00,
2013-04-30 07:52:00,41.0,41.0,30.39,North,0,0.0,0.0,100,0.00,,,0.00,,2013-04-30 14:52:00,
2013-04-30 08:01:00,41.0,41.0,30.38,North,0,0.0,0.0,100,0.00,,,0.00,,2013-04-30 15:01:00,
2013-04-30 08:11:00,41.0,41.0,30.38,North,0,0.0,0.0,100,0.00,,,0.00,,2013-04-30 15:11:00,
2013-04-30 08:21:00,42.0,42.0,30.38,North,0,0.0,0.0,99,0.00,,,0.00,,2013-04-30 15:21:00,
2013-04-30 08:32:00,42.0,42.0,30.38,North,0,0.0,0.0,99,0.00,,,0.00,,2013-04-30 15:32:00,
2013-04-30 08:42:00,42.0,42.0,30.38,North,0,0.0,0.0,99,0.00,,,0.00,,2013-04-30 15:42:00,
2013-04-30 08:52:00,44.0,43.0,30.38,East,91,0.0,8.0,97,0.00,,,0.00,,2013-04-30 15:52:00,
2013-04-30 09:02:00,45.0,43.0,30.38,NE,53,5.0,8.0,94,0.00,,,0.00,,2013-04-30 16:02:00,
2013-04-30 09:12:00,45.0,43.0,30.38,NE,53,5.0,8.0,94,0.00,,,0.00,,2013-04-30 16:12:00,
2013-04-30 09:22:00,47.0,45.0,30.38,West,280,5.0,9.0,92,0.00,,,0.00,,2013-04-30 16:22:00,
2013-04-30 09:32:00,46.0,43.0,30.39,NE,39,7.0,11.0,89,0.00,,,0.00,,2013-04-30 16:32:00,
2013-04-30 09:42:00,46.0,43.0,30.39,NE,39,7.0,11.0,89,0.00,,,0.00,,2013-04-30 16:42:00,
2013-04-30 09:52:00,45.0,43.0,30.40,NE,47,0.0,12.0,92,0.00,,,0.00,,2013-04-30 16:52:00,
2013-04-30 10:02:00,46.0,44.0,30.40,North,0,2.0,8.0,92,0.00,,,0.00,,2013-04-30 17:02:00,
2013-04-30 10:11:00,46.0,43.0,30.40,North,357,2.0,10.0,89,0.00,,,0.00,,2013-04-30 17:11:00,
2013-04-30 10:22:00,46.0,43.0,30.40,North,357,2.0,10.0,89,0.00,,,0.00,,2013-04-30 17:22:00,
2013-04-30 10:32:00,46.0,44.0,30.41,NNE,16,6.0,13.0,91,0.00,,,0.00,,2013-04-30 17:32:00,
2013-04-30 10:41:00,46.0,43.0,30.40,North,8,8.0,14.0,89,0.00,,,0.00,,2013-04-30 17:41:00,
2013-04-30 10:52:00,46.0,43.0,30.40,North,8,8.0,14.0,89,0.00,,,0.00,,2013-04-30 17:52:00,
2013-04-30 11:01:00,48.0,43.0,30.41,ENE,61,6.0,14.0,82,0.00,,,0.00,,2013-04-30 18:01:00,
2013-04-30 11:11:00,48.0,42.0,30.41,NNE,16,4.0,13.0,80,0.00,,,0.00,,2013-04-30 18:11:00,
2013-04-30 11:22:00,48.0,42.0,30.41,NNE,16,4.0,13.0,80,0.00,,,0.00,,2013-04-30 18:22:00,
2013-04-30 11:32:00,48.0,43.0,30.41,NNE,25,5.0,15.0,82,0.00,,,0.00,,2013-04-30 18:32:00,
2013-04-30 11:41:00,48.0,44.0,30.42,North,11,8.0,13.0,86,0.00,,,0.00,,2013-04-30 18:41:00,
2013-04-30 11:51:00,48.0,44.0,30.42,North,11,8.0,13.0,86,0.00,,,0.00,,2013-04-30 18:51:00,
2013-04-30 12:01:00,49.0,45.0,30.42,NW,313,5.0,16.0,85,0.00,,,0.00,,2013-04-30 19:01:00,
2013-04-30 12:11:00,48.0,43.0,30.43,NNE,14,8.0,16.0,83,0.00,,,0.00,,2013-04-30 19:11:00,
2013-04-30 12:21:00,48.0,43.0,30.43,NNE,14,8.0,16.0,83,0.00,,,0.00,,2013-04-30 19:21:00,
2013-04-30 12:31:00,49.0,44.0,30.42,NW,324,9.0,13.0,84,0.00,,,0.00,,2013-04-30 19:31:00,
2013-04-30 12:41:00,49.0,43.0,30.43,WNW,299,8.0,16.0,81,0.00,,,0.00,,2013-04-30 19:41:00,
2013-04-30 12:52:00,49.0,43.0,30.43,WNW,299,8.0,16.0,81,0.00,,,0.00,,2013-04-30 19:52:00,
2013-04-30 13:01:00,49.0,44.0,30.43,WNW,298,4.0,14.0,82,0.00,,,0.00,,2013-04-30 20:01:00,
2013-04-30 13:11:00,49.0,44.0,30.43,WNW,298,4.0,14.0,82,0.00,,,0.00,,2013-04-30 20:11:00,
2013-04-30 13:21:00,50.0,46.0,30.43,WNW,284,7.0,15.0,85,0.00,,,0.00,,2013-04-30 20:21:00,
2013-04-30 13:32:00,49.0,44.0,30.43,WNW,302,8.0,16.0,84,0.00,,,0.00,,2013-04-30 20:32:00,
2013-04-30 13:42:00,49.0,44.0,30.43,WNW,302,8.0,16.0,84,0.00,,,0.00,,2013-04-30 20:42:00,
2013-04-30 13:52:00,49.0,44.0,30.43,NW,310,7.0,15.0,83,0.00,,,0.00,,2013-04-30 20:52:00,
2013-04-30 14:01:00,49.0,43.0,30.44,WNW,301,9.0,19.0,81,0.00,,,0.00,,2013-04-30 21:01:00,
2013-04-30 14:11:00,50.0,44.0,30.44,NNE,32,6.0,15.0,81,0.00,,,0.00,,2013-04-30 21:11:00,
2013-04-30 14:21:00,50.0,44.0,30.44,NNE,32,6.0,15.0,81,0.00,,,0.00,,2013-04-30 21:21:00,
2013-04-30 14:32:00,49.0,45.0,30.44,NNE,26,9.0,17.0,85,0.00,,,0.00,,2013-04-30 21:32:00,
2013-04-30 14:42:00,49.0,45.0,30.44,NNE,26,9.0,17.0,85,0.00,,,0.00,,2013-04-30 21:42:00,
2013-04-30 14:53:00,49.0,45.0,30.44,NW,320,8.0,17.0,85,0.00,,,0.00,,2013-04-30 21:53:00,
2013-04-30 15:02:00,50.0,44.0,30.45,NNE,19,7.0,21.0,81,0.00,,,0.00,,2013-04-30 22:02:00,
2013-04-30 15:12:00,49.0,43.0,30.45,NNW,343,8.0,16.0,80,0.00,,,0.00,,2013-04-30 22:12:00,
2013-04-30 15:22:00,49.0,43.0,30.45,NNW,343,8.0,16.0,80,0.00,,,0.00,,2013-04-30 22:22:00,
2013-04-30 15:32:00,49.0,43.0,30.45,NE,36,5.0,16.0,80,0.00,,,0.00,,2013-04-30 22:32:00,
2013-04-30 15:41:00,49.0,43.0,30.45,NE,36,5.0,16.0,80,0.00,,,0.00,,2013-04-30 22:41:00,
2013-04-30 15:53:00,50.0,44.0,30.45,West,266,3.0,13.0,80,0.00,,,0.00,,2013-04-30 22:53:00,
2013-04-30 16:02:00,50.0,43.0,30.45,North,0,7.0,17.0,77,0.00,,,0.00,,2013-04-30 23:02:00,
2013-04-30 16:11:00,50.0,43.0,30.45,NE,35,5.0,15.0,77,0.00,,,0.00,,2013-04-30 23:11:00,
2013-04-30 16:21:00,50.0,43.0,30.45,NE,35,5.0,15.0,77,0.00,,,0.00,,2013-04-30 23:21:00,
2013-04-30 16:32:00,50.0,43.0,30.45,East,86,6.0,17.0,77,0.00,,,0.00,,2013-04-30 23:32:00,
2013-04-30 16:42:00,50.0,43.0,30.45,East,86,6.0,17.0,77,0.00,,,0.00,,2013-04-30 23:42:00,
2013-04-30 16:52:00,49.0,42.0,30.45,NW,313,6.0,9.0,78,0.00,,,0.00,,2013-04-30 23:52:00,
2013-04-30 17:01:00,50.0,44.0,30.44,North,0,8.0,15.0,80,0.00,,,0.00,,2013-05-01 00:01:00,
2013-04-30 17:11:00,50.0,44.0,30.44,North,0,8.0,15.0,80,0.00,,,0.00,,2013-05-01 00:11:00,
2013-04-30 17:21:00,49.0,43.0,30.45,NNW,337,9.0,19.0,79,0.00,,,0.00,,2013-05-01 00:21:00,
2013-04-30 17:31:00,50.0,43.0,30.45,NE,39,6.0,15.0,78,0.00,,,0.00,,2013-05-01 00:31:00,
2013-04-30 17:42:00,50.0,43.0,30.45,NE,39,6.0,15.0,78,0.00,,,0.00,,2013-05-01 00:42:00,
2013-04-30 17:51:00,49.0,43.0,30.45,NNE,29,7.0,17.0,80,0.00,,,0.00,,2013-05-01 00:51:00,
2013-04-30 18:01:00,49.0,43.0,30.45,North,357,4.0,18.0,80,0.00,,,0.00,,2013-05-01 01:01:00,
2013-04-30 18:11:00,49.0,43.0,30.45,North,357,4.0,18.0,80,0.00,,,0.00,,2013-05-01 01:11:00,
2013-04-30 18:21:00,49.0,43.0,30.45,NNW,337,5.0,14.0,79,0.00,,,0.00,,2013-05-01 01:21:00,
2013-04-30 18:31:00,48.0,41.0,30.46,North,8,8.0,18.0,78,0.00,,,0.00,,2013-05-01 01:31:00,
2013-04-30 18:41:00,48.0,41.0,30.46,North,8,8.0,18.0,78,0.00,,,0.00,,2013-05-01 01:41:00,
2013-04-30 18:52:00,48.0,42.0,30.46,NNE,29,4.0,11.0,79,0.00,,,0.00,,2013-05-01 01:52:00,
2013-04-30 19:01:00,48.0,42.0,30.46,NNE,21,4.0,14.0,80,0.00,,,0.00,,2013-05-01 02:01:00,
2013-04-30 19:11:00,48.0,42.0,30.46,NW,310,7.0,12.0,80,0.00,,,0.00,,2013-05-01 02:11:00,
2013-04-30 19:21:00,48.0,42.0,30.46,NW,310,7.0,12.0,80,0.00,,,0.00,,2013-05-01 02:21:00,
2013-04-30 19:32:00,47.0,42.0,30.46,North,8,7.0,15.0,82,0.00,,,0.00,,2013-05-01 02:32:00,
2013-04-30 19:42:00,47.0,42.0,30.46,North,8,7.0,15.0,82,0.00,,,0.00,,2013-05-01 02:42:00,
2013-04-30 19:52:00,47.0,41.0,30.46,NE,43,9.0,15.0,81,0.00,,,0.00,,2013-05-01 02:52:00,
2013-04-30 20:01:00,46.0,40.0,30.46,North,11,8.0,14.0,79,0.00,,,0.00,,2013-05-01 03:01:00,
2013-04-30 20:11:00,46.0,40.0,30.46,North,11,8.0,14.0,79,0.00,,,0.00,,2013-05-01 03:11:00,
2013-04-30 20:21:00,46.0,40.0,30.46,NNE,15,6.0,13.0,78,0.00,,,0.00,,2013-05-01 03:21:00,
2013-04-30 20:32:00,46.0,40.0,30.46,North,352,5.0,13.0,80,0.00,,,0.00,,2013-05-01 03:32:00,
2013-04-30 20:42:00,46.0,40.0,30.46,North,352,5.0,13.0,80,0.00,,,0.00,,2013-05-01 03:42:00,
2013-04-30 20:53:00,45.0,40.0,30.47,North,0,0.0,9.0,82,0.00,,,0.00,,2013-05-01 03:53:00,
2013-04-30 21:02:00,44.0,40.0,30.47,NE,40,0.0,9.0,85,0.00,,,0.00,,2013-05-01 04:02:00,
2013-04-30 21:12:00,44.0,40.0,30.47,NE,40,0.0,9.0,85,0.00,,,0.00,,2013-05-01 04:12:00,
2013-04-30 21:22:00,44.0,40.0,30.47,North,0,0.0,9.0,86,0.00,,,0.00,,2013-05-01 04:22:00,
2013-04-30 21:32:00,44.0,41.0,30.48,North,5,0.0,7.0,88,0.00,,,0.00,,2013-05-01 04:32:00,
2013-04-30 21:42:00,44.0,41.0,30.48,North,5,0.0,7.0,88,0.00,,,0.00,,2013-05-01 04:42:00,
2013-04-30 21:52:00,42.0,39.0,30.48,North,0,0.0,0.0,90,0.00,,,0.00,,2013-05-01 04:52:00,
2013-04-30 22:02:00,42.0,40.0,30.48,North,0,0.0,0.0,91,0.00,,,0.00,,2013-05-01 05:02:00,
2013-04-30 22:11:00,42.0,40.0,30.48,North,0,0.0,0.0,91,0.00,,,0.00,,2013-05-01 05:11:00,
2013-04-30 22:21:00,41.0,39.0,30.49,North,0,0.0,0.0,93,0.00,,,0.00,,2013-05-01 05:21:00,
2013-04-30 22:32:00,41.0,39.0,30.49,North,0,0.0,0.0,93,0.00,,,0.00,,2013-05-01 05:32:00,
2013-04-30 22:41:00,40.0,38.0,30.49,North,0,0.0,0.0,94,0.00,,,0.00,,2013-05-01 05:41:00,
2013-04-30 22:52:00,40.0,38.0,30.49,North,0,0.0,0.0,94,0.00,,,0.00,,2013-05-01 05:52:00,
2013-04-30 23:01:00,40.0,39.0,30.49,North,0,0.0,0.0,95,0.00,,,0.00,,2013-05-01 06:01:00,
2013-04-30 23:11:00,40.0,39.0,30.49,North,0,0.0,0.0,95,0.00,,,0.00,,2013-05-01 06:11:00,
2013-04-30 23:21:00,40.0,39.0,30.50,North,0,0.0,0.0,95,0.00,,,0.00,,2013-05-01 06:21:00,
2013-04-30 23:32:00,39.0,38.0,30.50,North,0,0.0,0.0,96,0.00,,,0.00,,2013-05-01 06:32:00,
2013-04-30 23:41:00,39.0,38.0,30.50,North,0,0.0,0.0,96,0.00,,,0.00,,2013-05-01 06:41:00,
2013-04-30 23:51:00,39.0,38.0,30.50,North,0,0.0,0.0,97,0.00,,,0.00,,2013-05-01 06:51:00,